Weather History for Franklin, NC

Change the Weather History Date:

Tuesday, January 17, 2012

  Actual Average (KTOC) Record (KTOC)
Temperature  
Mean Temperature 40 °F -  
Max Temperature 53 °F 51 °F 55 °F (2014)
Min Temperature 28 °F 29 °F 27 °F (2014)
Degree Days  
Heating Degree Days 24    
Moisture  
Dew Point 39 °F    
Average Humidity 90    
Maximum Humidity 100    
Minimum Humidity 77    
Precipitation  
Precipitation 0.74 in - - ()
Sea Level Pressure  
Sea Level Pressure 30.12 in    
Wind  
Wind Speed 1 mph (SE)    
Max Wind Speed 13 mph    
Max Gust Speed 18 mph    
Visibility 9 miles    
Events Rain    
Averages and records for this station are not official NWS values.
T = Trace of Precipitation, MM = Missing Value Source: NWS Daily Summary

Daily Weather History Graph

Daily Weather History Graph

Search for Another Location

Airport:

Trip Planner

Search our weather history database for the weather conditions in past years. The results will help you decide how hot, cold, wet, or windy it might be!

Date:

Astronomy

Jan. 17, 2012 Rise Set
Actual Time 7:41 AM EST 5:46 PM EST
Civil Twilight 7:13 AM EST 6:13 PM EST
Nautical Twilight 6:42 AM EST 6:44 PM EST
Astronomical Twilight 6:12 AM EST 7:15 PM EST
Moon 2:01 AM EST (1/17) 12:38 PM EST (1/17)
Length of Visible Light 11h 00m
Length of Day
10h 05m
Waning Crescent, 35% of the Moon is Illuminated
Jan 17
Waning Crescent
Jan 23
New
Jan 30
First Quarter
Feb 7
Full
Feb 14
Last Quarter

Hourly Weather History & Observations

Time (EST) Temp. Dew Point Humidity Pressure Visibility Wind Dir Wind Speed Gust Speed Precip Events Conditions
12:15 AM 32.0 °F 28.4 °F 87% 30.31 in 10.0 mi Calm Calm - N/A   Scattered Clouds
12:35 AM 32.0 °F 28.4 °F 87% 30.30 in 10.0 mi Calm Calm - N/A   Clear
12:55 AM 32.0 °F 28.4 °F 87% 30.29 in 10.0 mi Calm Calm - N/A   Mostly Cloudy
1:15 AM 32.0 °F 28.4 °F 87% 30.29 in 10.0 mi Calm Calm - N/A   Mostly Cloudy
1:35 AM 32.0 °F 28.4 °F 87% 30.28 in 10.0 mi Calm Calm - N/A   Scattered Clouds
1:55 AM 32.0 °F 28.4 °F 87% 30.28 in 10.0 mi Calm Calm - N/A   Clear
2:15 AM 30.2 °F 26.6 °F 86% 30.27 in 10.0 mi Calm Calm - N/A   Clear
2:35 AM 30.2 °F 26.6 °F 86% 30.26 in 10.0 mi Calm Calm - N/A   Clear
2:55 AM 30.2 °F 28.4 °F 93% 30.26 in 10.0 mi Calm Calm - N/A   Clear
3:15 AM 30.2 °F 26.6 °F 86% 30.25 in 10.0 mi Calm Calm - N/A   Scattered Clouds
3:35 AM 30.2 °F 28.4 °F 93% 30.26 in 10.0 mi Calm Calm - N/A   Mostly Cloudy
3:55 AM 30.2 °F 28.4 °F 93% 30.23 in 10.0 mi Calm Calm - N/A   Scattered Clouds
4:15 AM 32.0 °F 28.4 °F 87% 30.24 in 10.0 mi Calm Calm - N/A   Mostly Cloudy
4:35 AM 32.0 °F 30.2 °F 93% 30.24 in 10.0 mi Calm Calm - N/A   Overcast
5:15 AM 32.0 °F 28.4 °F 87% 30.23 in 10.0 mi Calm Calm - N/A   Scattered Clouds
5:35 AM 30.2 °F 28.4 °F 93% 30.22 in 10.0 mi Calm Calm - N/A   Clear
5:55 AM 30.2 °F 28.4 °F 93% 30.21 in 10.0 mi Calm Calm - N/A   Scattered Clouds
6:15 AM 30.2 °F 28.4 °F 93% 30.21 in 10.0 mi Calm Calm - N/A   Clear
6:35 AM 30.2 °F 28.4 °F 93% 30.21 in 10.0 mi Calm Calm - N/A   Clear
7:15 AM 28.4 °F 26.6 °F 93% 30.19 in 10.0 mi Calm Calm - N/A   Clear
7:35 AM 30.2 °F 28.4 °F 93% 30.18 in 10.0 mi Calm Calm - N/A   Scattered Clouds
7:55 AM 30.2 °F 28.4 °F 93% 30.19 in 10.0 mi Calm Calm - N/A   Scattered Clouds
8:15 AM 32.0 °F 30.2 °F 93% 30.20 in 10.0 mi Calm Calm - N/A   Mostly Cloudy
9:15 AM 33.8 °F 32.0 °F 93% 30.19 in 7.0 mi Calm Calm - N/A Rain Rain
9:35 AM 35.6 °F 32.0 °F 87% 30.17 in 7.0 mi Calm Calm - N/A Rain Rain
10:15 AM 37.4 °F 33.8 °F 87% 30.18 in 10.0 mi Calm Calm - N/A   Overcast
10:35 AM 39.2 °F 35.6 °F 87% 30.18 in 10.0 mi Calm Calm - N/A Rain Light Rain
10:55 AM 41.0 °F 37.4 °F 87% 30.17 in 10.0 mi Calm Calm - N/A   Overcast
11:15 AM 41.0 °F 37.4 °F 87% 30.15 in 10.0 mi Calm Calm - N/A   Overcast
11:35 AM 42.8 °F 39.2 °F 87% 30.13 in 10.0 mi Calm Calm - N/A   Overcast
11:55 AM 42.8 °F 41.0 °F 93% 30.12 in 10.0 mi Calm Calm - N/A   Drizzle
12:15 PM 44.6 °F 42.8 °F 93% 30.10 in 10.0 mi Calm Calm - N/A   Overcast
12:35 PM 51.8 °F 46.4 °F 82% 30.08 in 10.0 mi Calm Calm - N/A   Overcast
1:15 PM 53.6 °F 46.4 °F 77% 30.06 in 10.0 mi Calm Calm - N/A   Overcast
1:35 PM 53.6 °F 46.4 °F 77% 30.03 in 7.0 mi South 6.9 mph - N/A Rain Light Rain
1:55 PM 53.6 °F 48.2 °F 82% 30.02 in 10.0 mi Calm Calm - N/A Rain Light Rain
2:35 PM 53.6 °F 50.0 °F 88% 30.01 in 10.0 mi South 3.5 mph - N/A   Light Drizzle
2:55 PM 53.6 °F 50.0 °F 88% 30.00 in 7.0 mi SE 6.9 mph - N/A Rain Rain
3:15 PM 53.6 °F 50.0 °F 88% 29.99 in 10.0 mi SSE 9.2 mph - N/A   Overcast
3:35 PM 53.6 °F 50.0 °F 88% 29.99 in 10.0 mi SSE 3.5 mph - N/A   Overcast
3:55 PM 53.6 °F 50.0 °F 88% 29.99 in 10.0 mi SE 5.8 mph - N/A   Drizzle
4:15 PM 53.6 °F 50.0 °F 88% 29.99 in 10.0 mi ESE 4.6 mph - N/A   Drizzle
4:35 PM 53.6 °F 50.0 °F 88% 29.98 in 5.0 mi ESE 3.5 mph - 0.02 in Rain Light Rain
4:55 PM 51.8 °F 50.0 °F 94% 29.99 in 7.0 mi East 5.8 mph - 0.05 in Rain Light Rain
5:15 PM 51.8 °F 50.0 °F 94% 30.00 in 5.0 mi Calm Calm - 0.04 in Rain Heavy Rain
5:35 PM 51.8 °F 50.0 °F 94% 29.99 in 5.0 mi ESE 5.8 mph - 0.09 in Rain Rain
5:55 PM 51.8 °F 50.0 °F 94% 29.98 in 7.0 mi ENE 5.8 mph - 0.13 in Rain Rain
6:15 PM 51.8 °F 50.0 °F 94% 29.98 in 7.0 mi ESE 3.5 mph - 0.03 in Rain Rain
6:35 PM 51.8 °F 50.0 °F 94% 29.98 in 5.0 mi SE 5.8 mph - 0.09 in Rain Rain
6:55 PM 51.8 °F 50.0 °F 94% 30.01 in 4.0 mi SE 6.9 mph - 0.18 in Rain Heavy Rain
7:15 PM 51.8 °F 50.0 °F 94% 30.00 in 4.0 mi SE 6.9 mph - 0.09 in Rain Rain
7:35 PM 51.8 °F 50.0 °F 94% 29.98 in 5.0 mi SE 3.5 mph - 0.16 in Rain Heavy Rain
7:55 PM 51.8 °F 50.0 °F 94% 29.99 in 5.0 mi ENE 8.1 mph - 0.23 in Rain Heavy Rain
8:15 PM 51.8 °F 50.0 °F 94% 29.96 in 7.0 mi ESE 6.9 mph - 0.05 in Rain Rain
8:55 PM 51.8 °F 50.0 °F 94% 29.95 in 10.0 mi East 4.6 mph - 0.10 in   Overcast
9:15 PM 51.8 °F 50.0 °F 94% 29.95 in 10.0 mi WSW 3.5 mph - N/A Rain Light Rain
9:35 PM 50.0 °F 50.0 °F 100% 29.96 in 10.0 mi West 8.1 mph - N/A Rain Rain
9:55 PM 51.8 °F 50.0 °F 94% 29.98 in 5.0 mi North 10.4 mph - 0.02 in Rain Rain
10:15 PM 51.8 °F 46.4 °F 82% 29.98 in 10.0 mi North 12.7 mph 18.4 mph 0.03 in Rain Light Rain
10:35 PM 50.0 °F 46.4 °F 87% 29.98 in 10.0 mi NNW 10.4 mph - 0.04 in Rain Rain
10:55 PM 50.0 °F 46.4 °F 87% 29.98 in 10.0 mi North 10.4 mph - 0.04 in Rain Light Rain
11:15 PM 50.0 °F 46.4 °F 87% 29.99 in 10.0 mi NW 10.4 mph 16.1 mph N/A Rain Rain
11:35 PM 48.2 °F 42.8 °F 82% 29.99 in 10.0 mi North 9.2 mph 19.6 mph N/A   Light Drizzle
11:55 PM 48.2 °F 41.0 °F 76% 29.99 in 10.0 mi North 10.4 mph 16.1 mph N/A   Overcast